Flag for U.S.A. Weather past 2 weeks in Beaumont, Texas, U.S.A.

Now
56 °F

Passing clouds.


Feels Like: 55 °F
Forecast: 55 / 77 °F
Wind: 6 mph from North

Location: Jefferson County Airport


UV Index: 7 (High)

Visibility: 10 mi


Pressure: 30.11 "Hg

Humidity: 90%

Dew point: 53 °F

Location of BeaumontLocation

Historic Weather in Beaumont

°F

Beaumont temperature yesterday

Maximum temperature yesterday: 67 °F (at 2:53 PM)
Minimum temperature yesterday: 56 °F (at 12:53 AM)
Average temperature yesterday: 61 °F

Past Weeks' High & Low Weather Summary

 TemperatureHumidityPressure
High78 °F (Apr 12, 1:53 PM)97% (Apr 6, 11:53 AM)30.28 "Hg (Apr 6, 11:53 AM)
Low42 °F (Apr 15, 6:53 AM)27% (Apr 9, 12:53 PM)29.61 "Hg (Apr 6, 5:53 PM)
Average64 °F71%30.00 "Hg
* Reported Apr 3 4:53 AM — Apr 18 4:53 AM, Beaumont, Weather by CustomWeather, © 2014

Note: Actual official high and low records may vary slightly from our data, if they occured in-between our weather recording intervals... More about our weather records

Advertising

Historic Weather Conditions — Data for Previous 24 hours

 ConditionsComfort  
Time TempWeatherWind HumidityBarometerVisibility
4:53 AM
Apr 18
56 °FPassing clouds.6 mph90%30.11 "Hg10 mi
3:53 AM56 °FPassing clouds.6 mph87%30.10 "Hg10 mi
2:53 AM57 °FPassing clouds.8 mph87%30.12 "Hg10 mi
1:53 AM57 °FPassing clouds.8 mph87%30.13 "Hg10 mi
12:53 AM58 °FPassing clouds.8 mph84%30.14 "Hg10 mi
11:53 PM
Apr 17
60 °FOvercast.7 mph80%30.14 "Hg10 mi
10:53 PM61 °FOvercast.6 mph78%30.14 "Hg10 mi
9:53 PM62 °FOvercast.7 mph75%30.13 "Hg10 mi
8:53 PM63 °FOvercast.8 mph73%30.13 "Hg10 mi
7:53 PM64 °FOvercast.10 mph68%30.11 "Hg10 mi
6:53 PM65 °FOvercast.10 mph66%30.10 "Hg10 mi
5:53 PM65 °FOvercast.14 mph66%30.10 "Hg10 mi
4:53 PM67 °FPassing clouds.10 mph61%30.09 "Hg10 mi
3:53 PM66 °FOvercast.9 mph65%30.09 "Hg10 mi
2:53 PM67 °FScattered clouds.12 mph63%30.11 "Hg10 mi
1:53 PM66 °FSunny.12 mph63%30.13 "Hg10 mi
12:53 PM63 °FPartly sunny.10 mph75%30.11 "Hg10 mi
11:53 AM60 °FOvercast.20 mph72%30.09 "Hg10 mi
10:53 AM61 °FPartly sunny.10 mph72%30.15 "Hg10 mi
9:53 AM59 °FMostly cloudy.12 mph75%30.14 "Hg10 mi
8:53 AM59 °FSunny.10 mph75%30.12 "Hg10 mi
7:53 AM57 °FPartly sunny.13 mph81%30.11 "Hg10 mi
6:53 AM58 °FPartly cloudy.10 mph81%30.09 "Hg10 mi
Weather by CustomWeather, © 2014

See weather overview